Location: Saint Louis
(38.6272°N, 90.1978°W)
Time: 17:24:13
(UTC-06:00)

Tiangong 1 - Visible Passes

Search period start: 22 December 2014 00:00
Search period end: 01 January 2015 00:00
Orbit: 363 x 383 km, 42.8° (Epoch: 22 December)

Date Brightness Start Highest point End Pass type
(mag) Time Alt. Az. Time Alt. Az. Time Alt. Az.
22 Dec 1.6 17:34:07 10° WNW 17:37:04 40° N 17:39:09 17° ENE visible
22 Dec 4.2 19:10:35 10° WNW 19:11:09 14° WNW 19:11:09 14° WNW visible
23 Dec 0.9 18:07:17 10° WNW 18:10:23 74° NNE 18:11:06 48° E visible
24 Dec 2.3 18:40:27 10° W 18:43:07 38° SW 18:43:07 38° SW visible
25 Dec 1.1 17:36:52 10° WNW 17:39:56 77° SSW 17:43:01 10° ESE visible
25 Dec 4.4 19:14:30 10° WSW 19:15:16 12° SW 19:15:16 12° SW visible
26 Dec 3.2 18:10:01 10° W 18:12:37 25° SSW 18:15:14 10° SSE visible
28 Dec 4.0 17:39:25 10° WSW 17:41:25 16° SW 17:43:26 10° S visible
